www.pogodaiklimat.ru

ПОГОДА в Baker Lake Airport

  • Прогноз погоды в Baker Lake Airport
  • Монитор погоды в Baker Lake Airport
  • Климат города

АРХИВ ПОГОДЫ в Baker Lake Airport

Время (UTC), дата Ветер
(напр.,м/с)
 
Видим.   Явления Облачность Т
(С)
Тd
(С)
f
(%)
Тe
(С)
Тes
(С)
Комфортность P
(гПа)
Po
(гПа)
Тmin
(С)
Tmax
(С)
R
(мм)
S
(см)
18 9.01 СЗ 4 40 км {снег} 9/0
[Ci sp]
-36.0 -40.4 64 -49 -49 опасность
обморожения
1010.6 1008.0 -37.9 -36.0 0.0 36
21 9.01 СЗ 5 40 км 9/0
[]
-35.6 -39.9 64 -49 -49 опасность
обморожения
1010.8 1008.2
00 10.01 СЗ 3 24 км позёмок ясно -36.5 -40.6 66 -48 -48 опасность
обморожения
1011.4 1008.8 -35.4
03 10.01 СЗ 4 24 км ясно -36.0 -40.1 66 -48 -48 опасность
обморожения
1011.7 1009.1
06 10.01 СЗ 3 24 км 3/3 1000 м
[Sc]
-35.6 -39.7 66 -47 -47 опасность
обморожения
1012.2 1009.6 -37.9 -34.9 71
09 10.01 СЗ 7 24 км 4/4 1000 м
[]
-33.4 -37.4 67 -49 -49 опасность
обморожения
1011.1 1008.5
12 10.01 СЗ 6 24 км ледяные иглы {снег} 3/3 1000 м
[Sc]
-33.4 -37.6 66 -48 -48 опасность
обморожения
1011.8 1009.2 -36.8 -34.9 0.0 36
15 10.01 СЗ 10 40 км 9/9 1000 м
[]
-36.1 -40.2 66 -55 -55 опасность
обморожения
1011.9 1009.3
18 10.01 З 8 40 км слабый снег 9/9 600 м
[Sc Ci sp]
-36.7 -40.9 65 -54 -54 опасность
обморожения
1012.0 1009.4 -36.8 -32.7 0.0 36
21 10.01 СЗ 7 40 км 3/0
[]
-37.7 -41.9 65 -55 -55 опасность
обморожения
1011.0 1008.4
00 11.01 СЗ 1 24 км ледяные иглы {снег} ясно -39.4 -43.2 67 -45 -45 опасность
обморожения
1011.9 1009.3 -39.5 -33.3 0.0 36
03 11.01 С 2 24 км ясно -38.7 -42.6 66 -46 -46 опасность
обморожения
1011.5 1008.9
06 11.01 С 2 24 км 4/0
[]
-40.0 -44.0 65 -48 -48 опасность
обморожения
1011.9 1009.3 -40.5 -32.7 0.0 101
09 11.01 С 3 24 км 3/0
[]
-40.5 -44.4 66 -52 -52 опасность
обморожения
1012.5 1009.9
12 11.01 С 4 24 км 1/1 1500 м
[]
-39.6 -43.7 65 -53 -53 опасность
обморожения
1013.9 1011.3 -40.8 -32.7 0.0
15 11.01 С 4 30 км 1/0
[]
-41.0 -45.2 64 -55 -55 опасность
обморожения
1015.1 1012.5
18 11.01 С 6 24 км ледяные иглы {снег} 5/0
[Ac trans Ci fib]
-39.9 -44.2 63 -56 -56 опасность
обморожения
1016.6 1014.0 -41.1 -39.1 0.0 36
21 11.01 СЗ 6 24 км 4/0
[]
-39.6 -43.9 63 -55 -55 опасность
обморожения
1017.4 1014.8
00 12.01 СЗ 6 24 км ледяные иглы {снег} 4/4
[Ac trans]
-38.1 -42.3 64 -54 -54 опасность
обморожения
1018.4 1015.8 -41.1 -38.0 0.0 36
03 12.01 СЗ 9 24 км 3/0
[]
-37.6 -41.8 65 -56 -56 опасность
обморожения
1018.1 1015.5
06 12.01 СЗ 4 24 км ледяные иглы {снег} 3/3
[Ac trans]
-37.2 -41.4 65 -49 -49 опасность
обморожения
1018.0 1015.4 -41.1 -36.6 0.0 51
09 12.01 СЗ 13 24 км 5/0
[]
-36.8 -41.0 65 -58 -58 опасность
обморожения
1017.3 1014.7
12 12.01 СЗ 9 24 км 5/0
[]
-36.8 -41.0 65 -55 -55 опасность
обморожения
1017.9 1015.3 -38.6 -36.6 0.0
15 12.01 СЗ 12 4800 м 5/0
[]
-36.5 -40.6 66 -57 -57 опасность
обморожения
1017.1 1014.5
18 12.01 СЗ 10 6000 м 3/0
[]
-36.3 -40.5 65 -55 -55 опасность
обморожения
1017.1 1014.5 -40.0 -35.8 0.0
21 12.01 СЗ 12 800 м 3/0
[]
-37.8 -42.0 65 -58 -58 опасность
обморожения
1017.8 1015.2
00 13.01 СЗ 8 9000 м ледяные иглы {снег} 3/3
[Ac trans]
-37.1 -41.3 65 -55 -55 опасность
обморожения
1018.7 1016.1 -37.9 -35.8 0.0 36
03 13.01 Ю 2 24 км 1/0
[]
-36.2 -40.3 66 -43 -43 опасность
обморожения
1018.8 1016.2
06 13.01 ЮЗ 3 24 км ледяные иглы {снег} ясно -37.7 -41.7 66 -49 -49 опасность
обморожения
1018.6 1016.0 -39.2 -35.1 0.0 162
09 13.01 СЗ 1 24 км ясно -37.5 -41.5 66 -43 -43 опасность
обморожения
1018.8 1016.2
12 13.01 З 8 24 км ясно -37.2 -41.3 65 -55 -55 опасность
обморожения
1017.9 1015.3 -39.2 -35.1 0.0
15 13.01 С 2 24 км 1/0
[]
-36.8 -41.0 65 -46 -46 опасность
обморожения
1018.3 1015.7
18 13.01 ЮЗ 2 30 км ледяные иглы {снег} 3/0
[Ac trans]
-37.4 -41.7 64 -45 -45 опасность
обморожения
1018.4 1015.8 -39.2 -34.4 0.0 26
21 13.01 СВ 2 30 км 1/0
[]
-38.3 -42.2 67 -46 -46 опасность
обморожения
1018.3 1015.7
00 14.01 ЮВ 1 24 км ледяные иглы {снег} ясно -39.1 -42.9 67 -44 -44 опасность
обморожения
1018.0 1015.4 -39.8 -35.2 0.0 26
03 14.01 С 1 24 км 3/0
[]
-39.8 -43.6 67 -42 -42 опасность
обморожения
1017.6 1015.0
06 14.01 С 1 16 км ледяные иглы {снег} ясно -39.4 -43.2 67 -41 -41 опасность
обморожения
1016.8 1014.2 -40.0 -34.4 0.0 151
09 14.01 З 2 24 км 3/0
[]
-37.1 -41.5 63 -44 -44 опасность
обморожения
1016.6 1014.0
12 14.01 ЮВ 1 24 км 9/9 1500 м
[]
-37.5 -41.8 64 -43 -43 опасность
обморожения
1015.8 1013.2 -40.0 -34.4 0.0
15 14.01 З 3 30 км 9/9 1500 м
[]
-35.2 -39.8 63 -45 -45 опасность
обморожения
1015.0 1012.4
18 14.01 З 2 30 км слабый снег 9/9 1500 м
[Sc]
-32.8 -37.5 63 -41 -41 опасность
обморожения
1014.4 1011.8 -40.0 -32.8 0.0 26
21 14.01 СЗ 5 30 км 9/9 1000 м
[]
-31.5 -35.9 65 -44 -44 опасность
обморожения
1013.7 1011.1
00 15.01 СЗ 2 24 км слабый снег 9/9 1000 м
[Sc]
-30.5 -34.8 66 -38 -38 опасность
обморожения
1013.5 1010.9 -39.9 -30.5 0.2 26
03 15.01 С 1 24 км 5/5 1000 м
[]
-33.1 -37.1 67 -35 -35 опасность
обморожения
1012.0 1009.4
06 15.01 С 1 24 км ледяные иглы {снег} 1/1 1000 м
[Sc]
-33.5 -37.1 70 -35 -35 опасность
обморожения
1011.0 1008.4 -39.9 -30.3 0.0 36
09 15.01 СЗ 6 24 км 1/1 1000 м
[]
-34.1 -37.8 69 -49 -49 опасность
обморожения
1009.9 1007.3
12 15.01 СЗ 7 24 км ледяные иглы {снег} 1/1 1000 м
[Sc]
-35.9 -40.0 66 -52 -52 опасность
обморожения
1008.9 1006.3 -35.9 -30.3 0.0 36
15 15.01 СЗ 8 30 км 8/8 1000 м
[]
-33.0 -37.2 66 -49 -49 опасность
обморожения
1009.0 1006.4
18 15.01 СЗ 9 30 км ледяные иглы {снег} 5/5 1000 м
[Sc]
-33.0 -37.2 66 -50 -50 опасность
обморожения
1009.3 1006.7 -36.0 -32.3 0.0 36
21 15.01 СЗ 8 30 км 3/0
[]
-33.7 -37.7 67 -50 -50 опасность
обморожения
1011.2 1008.6
00 16.01 ЮЗ 3 24 км {снег} ясно -34.6 -38.6 67 -44 -44 опасность
обморожения
1013.4 1010.8 -36.0 -32.3 0.0 26
03 16.01 С 5 24 км 3/0
[]
-34.9 -38.9 67 -48 -48 опасность
обморожения
1014.4 1011.8
06 16.01 З 2 24 км 5/0
[As trans]
-35.1 -38.8 69 -44 -44 опасность
обморожения
1015.6 1013.0 -36.9 -32.3 201
09 16.01 В 2 24 км 10/0
[]
-34.8 -38.6 68 -42 -42 опасность
обморожения
1015.4 1012.8
12 16.01 ЮВ 4 24 км 10/0 1500 м
[As op]
-32.8 -36.3 71 -44 -44 опасность
обморожения
1013.2 1010.6 -36.9 -32.3 36
15 16.01 ЮВ 7 4000 м 10/10 1500 м
[]
-28.3 -31.6 73 -42 -42 опасность
обморожения
1009.3 1006.8

 

Местоположение метеостанции Baker Lake Airport (Канада): широта 64.30 долгота -96.06 высота над уровнем моря 18 м.

В архиве по умолчанию представлена погода в Baker Lake Airport за последнюю неделю. Архивные данные за месяц целиком и за предыдущие месяцы, начиная с января 2011 года, Вы можете получить, выбрав интересующий диапазон дат из раскрывающегося списка и нажав кнопку "Ввод!".

Внимание! Время в таблицах - всемирное. Для получения местного времени необходимо прибавить поправку, которая в Baker Lake Airport равна -6 ч.

Ветер - указаны скорость ветра в м/с - средняя за 10 мин, порывы в срок и между сроками (в фигурных скобках) и направление, откуда дует ветер: С - северный, СВ - северо-восточный, В - восточный, ЮВ - юго-восточный, Ю - южный, ЮЗ - юго-западный, З - западный, СЗ - северо-западный.
Видимость - горизонтальная дальность видимости в метрах или километрах. При видимости от 1 до 10 км при отсутствии осадков обычно наблюдается дымка, при ухудшении видимости до 1 км и менее - туман. В сухую погоду видимость может ухудшаться дымом, пылью или мглою.
Явления - указаны атмосферные явления, наблюдавшиеся в срок или в последний час перед сроком; фигурными скобками обозначены явления, наблюдавшиеся между сроками (за 1-3 часа до срока); квадратными скобками обозначены град или гололедные отложения с указанием их диаметра в мм.
Облачность - указаны через наклонную черту общая и нижняя облачность в баллах и высота нижней границы облаков в метрах; квадратными скобками обозначены формы облаков: Ci - перистые, Cs - перисто-слоистые, Cc - перисто-кучевые, Ac - высококучевые, As - высокослоистые, Sc - слоисто-кучевые, Ns - слоисто-дождевые, Cu - кучевые, Cb - кучево-дождевые. Подробнее классификацию облаков см. в Атласе облаков (PDF).
T - Температура воздуха - температура, измеренная на высоте 2 м над землей.
Td - Температура точки росы - температура, при понижении до которой содержащийся в воздухе водяной пар достигнет насыщения.
f - Относительная влажность воздуха - влажноcть воздуха, измеренная на высоте 2 м над землей.
Te - Эффективная температура - температура, которую ощущает одетый по сезону человек в тени. Характеристика душности погоды. При расчете учитывается влияние влажности воздуха и скорости ветра на теплоощущения человека.
Tes - Эффективная температура на солнце - температура, которую ощущает человек, с поправкой на солнечный нагрев. Характеристика знойности погоды. Зависит от высоты солнца над горизонтом, облачности и скорости ветра. Ночью, в пасмурную погоду, а также при ветре 12 м/с и более поправка равна нулю.
P - Атмосферное давление - приведенное к уровню моря атмосферное давление.
Po - Атмосферное давление - измеренное на уровне метеостанции атмосферное давление.
Tmin - Минимальная температура - минимум температуры воздуха на высоте 2 м над землей.
Tmax - Максимальная температура - максимум температуры воздуха на высоте 2 м над землей.
R - Количество осадков - Количество выпавших осадков, мм. При наведении курсора мыши на число - период времени, за который выпало указанное количество осадков.
S - Снежный покров - Высота снежного покрова, см. При наведении курсора мыши на число - состояние снежного покрова и степень покрытия местности в баллах.